Year,Month,Day,Hour,Minute,Value (Times are PST for temperature in C)
2011,04,07,00,00,3.20
2011,04,07,00,01,3.20
2011,04,07,00,02,3.30
2011,04,07,00,03,3.30
2011,04,07,00,04,3.20
2011,04,07,00,05,3.20
2011,04,07,00,06,3.20
2011,04,07,00,07,3.20
2011,04,07,00,08,3.20
2011,04,07,00,09,3.20
2011,04,07,00,10,3.20
2011,04,07,00,11,3.30
2011,04,07,00,12,3.20
2011,04,07,00,13,3.20
2011,04,07,00,14,3.20
2011,04,07,00,15,3.20
2011,04,07,00,16,3.10
2011,04,07,00,17,3.10
2011,04,07,00,18,3.00
2011,04,07,00,19,3.00
2011,04,07,00,20,3.00
2011,04,07,00,21,2.90
2011,04,07,00,22,2.90
2011,04,07,00,23,2.80
2011,04,07,00,24,2.80
2011,04,07,00,25,2.80
2011,04,07,00,26,2.80
2011,04,07,00,27,2.90
2011,04,07,00,28,3.00
2011,04,07,00,29,3.10
2011,04,07,00,30,3.00
2011,04,07,00,31,3.00
2011,04,07,00,32,3.00
2011,04,07,00,33,3.00
2011,04,07,00,34,3.00
2011,04,07,00,35,2.90
2011,04,07,00,36,2.90
2011,04,07,00,37,2.90
2011,04,07,00,38,2.90
2011,04,07,00,39,3.00
2011,04,07,00,40,3.10
2011,04,07,00,41,3.10
2011,04,07,00,42,3.10
2011,04,07,00,43,3.10
2011,04,07,00,44,3.10
2011,04,07,00,45,3.10
2011,04,07,00,46,3.10
2011,04,07,00,47,3.10
2011,04,07,00,48,3.10
2011,04,07,00,49,3.10
2011,04,07,00,50,3.10
2011,04,07,00,51,3.00
2011,04,07,00,52,2.90
2011,04,07,00,53,2.90
2011,04,07,00,54,2.80
2011,04,07,00,55,2.80
2011,04,07,00,56,2.70
2011,04,07,00,57,2.60
2011,04,07,00,58,2.60
2011,04,07,00,59,2.60
2011,04,07,01,00,2.50
2011,04,07,01,01,2.50
2011,04,07,01,02,2.50
2011,04,07,01,03,2.40
2011,04,07,01,04,2.40
2011,04,07,01,05,2.40
2011,04,07,01,06,2.30
2011,04,07,01,07,2.30
2011,04,07,01,08,2.40
2011,04,07,01,09,2.50
2011,04,07,01,10,2.50
2011,04,07,01,11,2.60
2011,04,07,01,12,2.60
2011,04,07,01,13,2.70
2011,04,07,01,14,2.70
2011,04,07,01,15,2.70
2011,04,07,01,16,2.80
2011,04,07,01,17,2.80
2011,04,07,01,18,2.80
2011,04,07,01,19,2.80
2011,04,07,01,20,2.80
2011,04,07,01,21,2.90
2011,04,07,01,22,2.90
2011,04,07,01,23,2.90
2011,04,07,01,24,2.80
2011,04,07,01,25,2.70
2011,04,07,01,26,2.60
2011,04,07,01,27,2.50
2011,04,07,01,28,2.50
2011,04,07,01,29,2.60
2011,04,07,01,30,2.60
2011,04,07,01,31,2.60
2011,04,07,01,32,2.40
2011,04,07,01,33,2.30
2011,04,07,01,34,2.30
2011,04,07,01,35,2.30
2011,04,07,01,36,2.40
2011,04,07,01,37,2.40
2011,04,07,01,38,2.40
2011,04,07,01,39,2.30
2011,04,07,01,40,2.20
2011,04,07,01,41,2.20
2011,04,07,01,42,2.30
2011,04,07,01,43,2.30
2011,04,07,01,44,2.30
2011,04,07,01,45,2.30
2011,04,07,01,46,2.30
2011,04,07,01,47,2.30
2011,04,07,01,48,2.40
2011,04,07,01,49,2.30
2011,04,07,01,50,2.30
2011,04,07,01,51,2.20
2011,04,07,01,52,2.20
2011,04,07,01,53,2.30
2011,04,07,01,54,2.20
2011,04,07,01,55,2.20
2011,04,07,01,56,2.20
2011,04,07,01,57,2.20
2011,04,07,01,58,2.20
2011,04,07,01,59,2.20
2011,04,07,02,00,2.20
2011,04,07,02,01,2.20
2011,04,07,02,02,2.20
2011,04,07,02,03,2.20
2011,04,07,02,04,2.20
2011,04,07,02,05,2.20
2011,04,07,02,06,2.20
2011,04,07,02,07,2.20
2011,04,07,02,08,2.20
2011,04,07,02,09,2.20
2011,04,07,02,10,2.10
2011,04,07,02,11,2.10
2011,04,07,02,12,2.10
2011,04,07,02,13,2.20
2011,04,07,02,14,2.20
2011,04,07,02,15,2.20
2011,04,07,02,16,2.20
2011,04,07,02,17,2.30
2011,04,07,02,18,2.30
2011,04,07,02,19,2.30
2011,04,07,02,20,2.30
2011,04,07,02,21,2.30
2011,04,07,02,22,2.30
2011,04,07,02,23,2.30
2011,04,07,02,24,2.30
2011,04,07,02,25,2.30
2011,04,07,02,26,2.30
2011,04,07,02,27,2.30
2011,04,07,02,28,2.30
2011,04,07,02,29,2.30
2011,04,07,02,30,2.30
2011,04,07,02,31,2.30
2011,04,07,02,32,2.30
2011,04,07,02,33,2.30
2011,04,07,02,34,2.40
2011,04,07,02,35,2.40
2011,04,07,02,36,2.50
2011,04,07,02,37,2.50
2011,04,07,02,38,2.50
2011,04,07,02,39,2.50
2011,04,07,02,40,2.60
2011,04,07,02,41,2.60
2011,04,07,02,42,2.70
2011,04,07,02,43,2.70
2011,04,07,02,44,2.70
2011,04,07,02,45,2.70
2011,04,07,02,46,2.80
2011,04,07,02,47,2.80
2011,04,07,02,48,2.80
2011,04,07,02,49,2.80
2011,04,07,02,50,2.80
2011,04,07,02,51,2.80
2011,04,07,02,52,2.80
2011,04,07,02,53,2.80
2011,04,07,02,54,2.80
2011,04,07,02,55,2.80
2011,04,07,02,56,2.80
2011,04,07,02,57,2.80
2011,04,07,02,58,2.90
2011,04,07,02,59,3.00
2011,04,07,03,00,3.00
2011,04,07,03,01,3.00
2011,04,07,03,02,3.10
2011,04,07,03,03,3.10
2011,04,07,03,04,3.10
2011,04,07,03,05,3.10
2011,04,07,03,06,3.10
2011,04,07,03,07,3.00
2011,04,07,03,08,3.00
2011,04,07,03,09,2.90
2011,04,07,03,10,2.90
2011,04,07,03,11,2.90
2011,04,07,03,12,2.90
2011,04,07,03,13,2.90
2011,04,07,03,14,2.90
2011,04,07,03,15,2.90
2011,04,07,03,16,2.90
2011,04,07,03,17,2.90
2011,04,07,03,18,2.90
2011,04,07,03,19,3.00
2011,04,07,03,20,3.00
2011,04,07,03,21,3.10
2011,04,07,03,22,3.10
2011,04,07,03,23,3.20
2011,04,07,03,24,3.20
2011,04,07,03,25,3.30
2011,04,07,03,26,3.30
2011,04,07,03,27,3.30
2011,04,07,03,28,3.30
2011,04,07,03,29,3.30
2011,04,07,03,30,3.30
2011,04,07,03,31,3.40
2011,04,07,03,32,3.40
2011,04,07,03,33,3.40
2011,04,07,03,34,3.40
2011,04,07,03,35,3.30
2011,04,07,03,36,3.30
2011,04,07,03,37,3.30
2011,04,07,03,38,3.30
2011,04,07,03,39,3.30
2011,04,07,03,40,3.30
2011,04,07,03,41,3.30
2011,04,07,03,42,3.30
2011,04,07,03,43,3.30
2011,04,07,03,44,3.30
2011,04,07,03,45,3.30
2011,04,07,03,46,3.40
2011,04,07,03,47,3.40
2011,04,07,03,48,3.40
2011,04,07,03,49,3.40
2011,04,07,03,50,3.50
2011,04,07,03,51,3.50
2011,04,07,03,52,3.60
2011,04,07,03,53,3.60
2011,04,07,03,54,3.60
2011,04,07,03,55,3.60
2011,04,07,03,56,3.60
2011,04,07,03,57,3.60
2011,04,07,03,58,3.70
2011,04,07,03,59,3.70
2011,04,07,04,00,3.70
2011,04,07,04,01,3.70
2011,04,07,04,02,3.70
2011,04,07,04,03,3.80
2011,04,07,04,04,3.80
2011,04,07,04,05,3.80
2011,04,07,04,06,3.80
2011,04,07,04,07,3.80
2011,04,07,04,08,3.80
2011,04,07,04,09,3.80
2011,04,07,04,10,3.80
2011,04,07,04,11,3.70
2011,04,07,04,12,3.70
2011,04,07,04,13,3.70
2011,04,07,04,14,3.70
2011,04,07,04,15,3.70
2011,04,07,04,16,3.70
2011,04,07,04,17,3.70
2011,04,07,04,18,3.70
2011,04,07,04,19,3.70
2011,04,07,04,20,3.70
2011,04,07,04,21,3.70
2011,04,07,04,22,3.70
2011,04,07,04,23,3.70
2011,04,07,04,24,3.70
2011,04,07,04,25,3.70
2011,04,07,04,26,3.70
2011,04,07,04,27,3.70
2011,04,07,04,28,3.70
2011,04,07,04,29,3.70
2011,04,07,04,30,3.70
2011,04,07,04,31,3.70
2011,04,07,04,32,3.70
2011,04,07,04,33,3.70
2011,04,07,04,34,3.70
2011,04,07,04,35,3.70
2011,04,07,04,36,3.70
2011,04,07,04,37,3.70
2011,04,07,04,38,3.70
2011,04,07,04,39,3.70
2011,04,07,04,40,3.70
2011,04,07,04,41,3.80
2011,04,07,04,42,3.80
2011,04,07,04,43,3.70
2011,04,07,04,44,3.70
2011,04,07,04,45,3.70
2011,04,07,04,46,3.70
2011,04,07,04,47,3.70
2011,04,07,04,48,3.70
2011,04,07,04,49,3.70
2011,04,07,04,50,3.70
2011,04,07,04,51,3.80
2011,04,07,04,52,3.70
2011,04,07,04,53,3.70
2011,04,07,04,54,3.70
2011,04,07,04,55,3.70
2011,04,07,04,56,3.70
2011,04,07,04,57,3.70
2011,04,07,04,58,3.70
2011,04,07,04,59,3.70
2011,04,07,05,00,3.70
2011,04,07,05,01,3.70
2011,04,07,05,02,3.70
2011,04,07,05,03,3.70
2011,04,07,05,04,3.70
2011,04,07,05,05,3.70
2011,04,07,05,06,3.70
2011,04,07,05,07,3.70
2011,04,07,05,08,3.70
2011,04,07,05,09,3.70
2011,04,07,05,10,3.70
2011,04,07,05,11,3.70
2011,04,07,05,12,3.70
2011,04,07,05,13,3.70
2011,04,07,05,14,3.70
2011,04,07,05,15,3.70
2011,04,07,05,16,3.70
2011,04,07,05,17,3.70
2011,04,07,05,18,3.70
2011,04,07,05,19,3.80
2011,04,07,05,20,3.80
2011,04,07,05,21,3.80
2011,04,07,05,22,3.80
2011,04,07,05,23,3.80
2011,04,07,05,24,3.80
2011,04,07,05,25,3.80
2011,04,07,05,26,3.80
2011,04,07,05,27,3.80
2011,04,07,05,28,3.80
2011,04,07,05,29,3.80
2011,04,07,05,30,3.80
2011,04,07,05,31,3.80
2011,04,07,05,32,3.80
2011,04,07,05,33,3.70
2011,04,07,05,34,3.70
2011,04,07,05,35,3.70
2011,04,07,05,36,3.70
2011,04,07,05,37,3.70
2011,04,07,05,38,3.80
2011,04,07,05,39,3.80
2011,04,07,05,40,3.80
2011,04,07,05,41,3.80
2011,04,07,05,42,3.80
2011,04,07,05,43,3.80
2011,04,07,05,44,3.80
2011,04,07,05,45,3.80
2011,04,07,05,46,3.80
2011,04,07,05,47,3.80
2011,04,07,05,48,3.80
2011,04,07,05,49,3.80
2011,04,07,05,50,3.80
2011,04,07,05,51,3.80
2011,04,07,05,52,3.80
2011,04,07,05,53,3.80
2011,04,07,05,54,3.80
2011,04,07,05,55,3.80
2011,04,07,05,56,3.80
2011,04,07,05,57,3.90
2011,04,07,05,58,3.90
2011,04,07,05,59,3.90
2011,04,07,06,00,3.90
2011,04,07,06,01,3.90
2011,04,07,06,02,3.90
2011,04,07,06,03,3.90
2011,04,07,06,04,3.90
2011,04,07,06,05,3.90
2011,04,07,06,06,3.90
2011,04,07,06,07,3.90
2011,04,07,06,08,3.90
2011,04,07,06,09,3.90
2011,04,07,06,10,3.90
2011,04,07,06,11,3.90
2011,04,07,06,12,3.90
2011,04,07,06,13,3.90
2011,04,07,06,14,3.90
2011,04,07,06,15,3.90
2011,04,07,06,16,4.00
2011,04,07,06,17,4.00
2011,04,07,06,18,4.00
2011,04,07,06,19,4.00
2011,04,07,06,20,4.00
2011,04,07,06,21,4.00
2011,04,07,06,22,4.00
2011,04,07,06,23,4.00
2011,04,07,06,24,4.00
2011,04,07,06,25,4.00
2011,04,07,06,26,4.00
2011,04,07,06,27,4.00
2011,04,07,06,28,4.00
2011,04,07,06,29,4.00
2011,04,07,06,30,4.00
2011,04,07,06,31,4.00
2011,04,07,06,32,4.00
2011,04,07,06,33,4.00
2011,04,07,06,34,4.00
2011,04,07,06,35,4.00
2011,04,07,06,36,4.00
2011,04,07,06,37,4.00
2011,04,07,06,38,4.00
2011,04,07,06,39,4.00
2011,04,07,06,40,4.00
2011,04,07,06,41,4.00
2011,04,07,06,42,4.00
2011,04,07,06,43,3.90
2011,04,07,06,44,4.00
2011,04,07,06,45,3.90
2011,04,07,06,46,3.90
2011,04,07,06,47,3.90
2011,04,07,06,48,3.90
2011,04,07,06,49,3.90
2011,04,07,06,50,3.90
2011,04,07,06,51,3.90
2011,04,07,06,52,3.90
2011,04,07,06,53,3.90
2011,04,07,06,54,3.90
2011,04,07,06,55,3.90
2011,04,07,06,56,3.90
2011,04,07,06,57,3.90
2011,04,07,06,58,3.90
2011,04,07,06,59,3.90
2011,04,07,07,00,4.00
2011,04,07,07,01,4.00
2011,04,07,07,02,4.00
2011,04,07,07,03,4.00
2011,04,07,07,04,4.00
2011,04,07,07,05,4.00
2011,04,07,07,06,4.00
2011,04,07,07,07,4.10
2011,04,07,07,08,4.10
2011,04,07,07,09,4.10
2011,04,07,07,10,4.10
2011,04,07,07,11,4.10
2011,04,07,07,12,4.10
2011,04,07,07,13,4.10
2011,04,07,07,14,4.10
2011,04,07,07,15,4.10
2011,04,07,07,16,4.10
2011,04,07,07,17,4.10
2011,04,07,07,18,4.20
2011,04,07,07,19,4.20
2011,04,07,07,20,4.20
2011,04,07,07,21,4.20
2011,04,07,07,22,4.10
2011,04,07,07,23,4.10
2011,04,07,07,24,4.10
2011,04,07,07,25,4.20
2011,04,07,07,26,4.20
2011,04,07,07,27,4.20
2011,04,07,07,28,4.20
2011,04,07,07,29,4.20
2011,04,07,07,30,4.20
2011,04,07,07,31,4.20
2011,04,07,07,32,4.20
2011,04,07,07,33,4.20
2011,04,07,07,34,4.30
2011,04,07,07,35,4.30
2011,04,07,07,36,4.30
2011,04,07,07,37,4.30
2011,04,07,07,38,4.30
2011,04,07,07,39,4.30
2011,04,07,07,40,4.30
2011,04,07,07,41,4.30
2011,04,07,07,42,4.30
2011,04,07,07,43,4.30
2011,04,07,07,44,4.40
2011,04,07,07,45,4.40
2011,04,07,07,46,4.40
2011,04,07,07,47,4.40
2011,04,07,07,48,4.40
2011,04,07,07,49,4.40
2011,04,07,07,50,4.50
2011,04,07,07,51,4.50
2011,04,07,07,52,4.50
2011,04,07,07,53,4.50
2011,04,07,07,54,4.50
2011,04,07,07,55,4.50
2011,04,07,07,56,4.50
2011,04,07,07,57,4.50
2011,04,07,07,58,4.60
2011,04,07,07,59,4.60
2011,04,07,08,00,4.60
2011,04,07,08,01,4.60
2011,04,07,08,02,4.60
2011,04,07,08,03,4.60
2011,04,07,08,04,4.60
2011,04,07,08,05,4.60
2011,04,07,08,06,4.60
2011,04,07,08,07,4.60
2011,04,07,08,08,4.60
2011,04,07,08,09,4.60
2011,04,07,08,10,4.60
2011,04,07,08,11,4.60
2011,04,07,08,12,4.60
2011,04,07,08,13,4.60
2011,04,07,08,14,4.60
2011,04,07,08,15,4.60
2011,04,07,08,16,4.70
2011,04,07,08,17,4.70
2011,04,07,08,18,4.70
2011,04,07,08,19,4.70
2011,04,07,08,20,4.70
2011,04,07,08,21,4.70
2011,04,07,08,22,4.70
2011,04,07,08,23,4.70
2011,04,07,08,24,4.70
2011,04,07,08,25,4.70
2011,04,07,08,26,4.80
2011,04,07,08,27,4.80
2011,04,07,08,28,4.80
2011,04,07,08,29,4.80
2011,04,07,08,30,4.80
2011,04,07,08,31,4.80
2011,04,07,08,32,4.80
2011,04,07,08,33,4.70
2011,04,07,08,34,4.80
2011,04,07,08,35,4.80
2011,04,07,08,36,4.80
2011,04,07,08,37,4.80
2011,04,07,08,38,4.80
2011,04,07,08,39,4.80
2011,04,07,08,40,4.80
2011,04,07,08,41,4.80
2011,04,07,08,42,4.90
2011,04,07,08,43,4.90
2011,04,07,08,44,4.90
2011,04,07,08,45,4.90
2011,04,07,08,46,4.90
2011,04,07,08,47,4.90
2011,04,07,08,48,5.00
2011,04,07,08,49,5.00
2011,04,07,08,50,5.00
2011,04,07,08,51,5.00
2011,04,07,08,52,5.10
2011,04,07,08,53,5.10
2011,04,07,08,54,5.10
2011,04,07,08,55,5.10
2011,04,07,08,56,5.10
2011,04,07,08,57,5.10
2011,04,07,08,58,5.10
2011,04,07,08,59,5.10
2011,04,07,09,00,5.10
2011,04,07,09,01,5.10
2011,04,07,09,02,5.10
2011,04,07,09,03,5.10
2011,04,07,09,04,5.10
2011,04,07,09,05,5.10
2011,04,07,09,06,5.20
2011,04,07,09,07,5.20
2011,04,07,09,08,5.20
2011,04,07,09,09,5.20
2011,04,07,09,10,5.20
2011,04,07,09,11,5.20
2011,04,07,09,12,5.20
2011,04,07,09,13,5.20
2011,04,07,09,14,5.20
2011,04,07,09,15,5.30
2011,04,07,09,16,5.30
2011,04,07,09,17,5.30
2011,04,07,09,18,5.30
2011,04,07,09,19,5.30
2011,04,07,09,20,5.40
2011,04,07,09,21,5.40
2011,04,07,09,22,5.40
2011,04,07,09,23,5.30
2011,04,07,09,24,5.30
2011,04,07,09,25,5.30
2011,04,07,09,26,5.30
2011,04,07,09,27,5.40
2011,04,07,09,28,5.40
2011,04,07,09,29,5.40
2011,04,07,09,30,5.40
2011,04,07,09,31,5.40
2011,04,07,09,32,5.40
2011,04,07,09,33,5.40
2011,04,07,09,34,5.40
2011,04,07,09,35,5.40
2011,04,07,09,36,5.40
2011,04,07,09,37,5.40
2011,04,07,09,38,5.40
2011,04,07,09,39,5.40
2011,04,07,09,40,5.50
2011,04,07,09,41,5.50
2011,04,07,09,42,5.50
2011,04,07,09,43,5.50
2011,04,07,09,44,5.50
2011,04,07,09,45,5.50
2011,04,07,09,46,5.60
2011,04,07,09,47,5.60
2011,04,07,09,48,5.60
2011,04,07,09,49,5.60
2011,04,07,09,50,5.60
2011,04,07,09,51,5.60
2011,04,07,09,52,5.60
2011,04,07,09,53,5.60
2011,04,07,09,54,5.60
2011,04,07,09,55,5.60
2011,04,07,09,56,5.60
2011,04,07,09,57,5.60
2011,04,07,09,58,5.60
2011,04,07,09,59,5.60
2011,04,07,10,00,5.50
2011,04,07,10,01,5.50
2011,04,07,10,02,5.50
2011,04,07,10,03,5.60
2011,04,07,10,04,5.60
2011,04,07,10,05,5.60
2011,04,07,10,06,5.60
2011,04,07,10,07,5.60
2011,04,07,10,08,5.60
2011,04,07,10,09,5.60
2011,04,07,10,10,5.60
2011,04,07,10,11,5.60
2011,04,07,10,12,5.60
2011,04,07,10,13,5.60
2011,04,07,10,14,5.60
2011,04,07,10,15,5.70
2011,04,07,10,16,5.70
2011,04,07,10,17,5.70
2011,04,07,10,18,5.70
2011,04,07,10,19,5.70
2011,04,07,10,20,5.70
2011,04,07,10,21,5.70
2011,04,07,10,22,5.80
2011,04,07,10,23,5.80
2011,04,07,10,24,5.80
2011,04,07,10,25,5.80
2011,04,07,10,26,5.80
2011,04,07,10,27,5.90
2011,04,07,10,28,5.90
2011,04,07,10,29,5.90
2011,04,07,10,30,5.90
2011,04,07,10,31,5.90
2011,04,07,10,32,5.90
2011,04,07,10,33,5.90
2011,04,07,10,34,5.90
2011,04,07,10,35,5.90
2011,04,07,10,36,5.90
2011,04,07,10,37,5.90
2011,04,07,10,38,6.00
2011,04,07,10,39,6.00
2011,04,07,10,40,6.00
2011,04,07,10,41,6.10
2011,04,07,10,42,6.10
2011,04,07,10,43,6.10
2011,04,07,10,44,6.10
2011,04,07,10,45,6.00
2011,04,07,10,46,5.90
2011,04,07,10,47,5.90
2011,04,07,10,48,5.80
2011,04,07,10,49,5.90
2011,04,07,10,50,5.90
2011,04,07,10,51,6.00
2011,04,07,10,52,6.10
2011,04,07,10,53,6.10
2011,04,07,10,54,6.10
2011,04,07,10,55,6.10
2011,04,07,10,56,6.10
2011,04,07,10,57,6.10
2011,04,07,10,58,6.10
2011,04,07,10,59,6.10
2011,04,07,11,00,6.20
2011,04,07,11,01,6.20
2011,04,07,11,02,6.30
2011,04,07,11,03,6.20
2011,04,07,11,04,6.20
2011,04,07,11,05,6.20
2011,04,07,11,06,6.20
2011,04,07,11,07,6.20
2011,04,07,11,08,6.30
2011,04,07,11,09,6.20
2011,04,07,11,10,6.20
2011,04,07,11,11,6.20
2011,04,07,11,12,6.20
2011,04,07,11,13,6.20
2011,04,07,11,14,6.10
2011,04,07,11,15,6.10
2011,04,07,11,16,6.00
2011,04,07,11,17,6.00
2011,04,07,11,18,6.10
2011,04,07,11,19,6.10
2011,04,07,11,20,6.20
2011,04,07,11,21,6.20
2011,04,07,11,22,6.30
2011,04,07,11,23,6.40
2011,04,07,11,24,6.30
2011,04,07,11,25,6.30
2011,04,07,11,26,6.30
2011,04,07,11,27,6.30
2011,04,07,11,28,6.30
2011,04,07,11,29,6.30
2011,04,07,11,30,6.30
2011,04,07,11,31,6.30
2011,04,07,11,32,6.30
2011,04,07,11,33,6.20
2011,04,07,11,34,6.20
2011,04,07,11,35,6.20
2011,04,07,11,36,6.20
2011,04,07,11,37,6.30
2011,04,07,11,38,6.30
2011,04,07,11,39,6.30
2011,04,07,11,40,6.40
2011,04,07,11,41,6.40
2011,04,07,11,42,6.40
2011,04,07,11,43,6.40
2011,04,07,11,44,6.50
2011,04,07,11,45,6.50
2011,04,07,11,46,6.60
2011,04,07,11,47,6.60
2011,04,07,11,48,6.60
2011,04,07,11,49,6.60
2011,04,07,11,50,6.60
2011,04,07,11,51,6.60
2011,04,07,11,52,6.60
2011,04,07,11,53,6.60
2011,04,07,11,54,6.60
2011,04,07,11,55,6.70
2011,04,07,11,56,6.70
2011,04,07,11,57,6.70
2011,04,07,11,58,6.60
2011,04,07,11,59,6.50
2011,04,07,12,00,6.40
2011,04,07,12,01,6.40
2011,04,07,12,02,6.50
2011,04,07,12,03,6.50
2011,04,07,12,04,6.50
2011,04,07,12,05,6.50
2011,04,07,12,06,6.40
2011,04,07,12,07,6.50
2011,04,07,12,08,6.60
2011,04,07,12,09,6.60
2011,04,07,12,10,6.70
2011,04,07,12,11,6.70
2011,04,07,12,12,6.60
2011,04,07,12,13,6.60
2011,04,07,12,14,6.60
2011,04,07,12,15,6.60
2011,04,07,12,16,6.60
2011,04,07,12,17,6.70
2011,04,07,12,18,6.70
2011,04,07,12,19,6.80
2011,04,07,12,20,6.80
2011,04,07,12,21,6.70
2011,04,07,12,22,6.70
2011,04,07,12,23,6.70
2011,04,07,12,24,6.70
2011,04,07,12,25,6.70
2011,04,07,12,26,6.70
2011,04,07,12,27,6.80
2011,04,07,12,28,6.80
2011,04,07,12,29,6.90
2011,04,07,12,30,6.90
2011,04,07,12,31,6.90
2011,04,07,12,32,7.00
2011,04,07,12,33,7.00
2011,04,07,12,34,7.00
2011,04,07,12,35,6.90
2011,04,07,12,36,6.80
2011,04,07,12,37,6.90
2011,04,07,12,38,7.00
2011,04,07,12,39,7.00
2011,04,07,12,40,7.10
2011,04,07,12,41,7.10
2011,04,07,12,42,7.10
2011,04,07,12,43,7.10
2011,04,07,12,44,7.00
2011,04,07,12,45,6.90
2011,04,07,12,46,6.90
2011,04,07,12,47,6.90
2011,04,07,12,48,6.90
2011,04,07,12,49,6.90
2011,04,07,12,50,6.90
2011,04,07,12,51,7.00
2011,04,07,12,52,7.00
2011,04,07,12,53,7.10
2011,04,07,12,54,7.20
2011,04,07,12,55,7.20
2011,04,07,12,56,7.20
2011,04,07,12,57,7.30
2011,04,07,12,58,7.40
2011,04,07,12,59,7.50
2011,04,07,13,00,7.50
2011,04,07,13,01,7.50
2011,04,07,13,02,7.50
2011,04,07,13,03,7.50
2011,04,07,13,04,7.50
2011,04,07,13,05,7.40
2011,04,07,13,06,7.40
2011,04,07,13,07,7.40
2011,04,07,13,08,7.50
2011,04,07,13,09,7.40
2011,04,07,13,10,7.40
2011,04,07,13,11,7.40
2011,04,07,13,12,7.30
2011,04,07,13,13,7.30
2011,04,07,13,14,7.30
2011,04,07,13,15,7.30
2011,04,07,13,16,7.30
2011,04,07,13,17,7.30
2011,04,07,13,18,7.30
2011,04,07,13,19,7.30
2011,04,07,13,20,7.30
2011,04,07,13,21,7.40
2011,04,07,13,22,7.50
2011,04,07,13,23,7.50
2011,04,07,13,24,7.60
2011,04,07,13,25,7.70
2011,04,07,13,26,7.70
2011,04,07,13,27,7.70
2011,04,07,13,28,7.70
2011,04,07,13,29,7.80
2011,04,07,13,30,7.80
2011,04,07,13,31,7.70
2011,04,07,13,32,7.70
2011,04,07,13,33,7.70
2011,04,07,13,34,7.70
2011,04,07,13,35,7.70
2011,04,07,13,36,7.70
2011,04,07,13,37,7.80
2011,04,07,13,38,7.80
2011,04,07,13,39,7.80
2011,04,07,13,40,7.80
2011,04,07,13,41,7.80
2011,04,07,13,42,7.80
2011,04,07,13,43,7.80
2011,04,07,13,44,7.80
2011,04,07,13,45,7.80
2011,04,07,13,46,7.80
2011,04,07,13,47,7.70
2011,04,07,13,48,7.60
2011,04,07,13,49,7.60
2011,04,07,13,50,7.50
2011,04,07,13,51,7.50
2011,04,07,13,52,7.50
2011,04,07,13,53,7.60
2011,04,07,13,54,7.70
2011,04,07,13,55,7.80
2011,04,07,13,56,8.00
2011,04,07,13,57,8.10
2011,04,07,13,58,8.10
2011,04,07,13,59,8.20
2011,04,07,14,00,8.20
2011,04,07,14,01,8.20
2011,04,07,14,02,8.20
2011,04,07,14,03,8.10
2011,04,07,14,04,8.00
2011,04,07,14,05,7.90
2011,04,07,14,06,7.80
2011,04,07,14,07,7.80
2011,04,07,14,08,7.80
2011,04,07,14,09,7.80
2011,04,07,14,10,7.80
2011,04,07,14,11,7.90
2011,04,07,14,12,7.90
2011,04,07,14,13,7.90
2011,04,07,14,14,8.00
2011,04,07,14,15,8.00
2011,04,07,14,16,8.10
2011,04,07,14,17,8.10
2011,04,07,14,18,8.20
2011,04,07,14,19,8.20
2011,04,07,14,20,8.30
2011,04,07,14,21,8.30
2011,04,07,14,22,8.20
2011,04,07,14,23,8.10
2011,04,07,14,24,8.10
2011,04,07,14,25,8.10
2011,04,07,14,26,8.10
2011,04,07,14,27,8.10
2011,04,07,14,28,8.20
2011,04,07,14,29,8.30
2011,04,07,14,30,8.30
2011,04,07,14,31,8.30
2011,04,07,14,32,8.30
2011,04,07,14,33,8.40
2011,04,07,14,34,8.50
2011,04,07,14,35,8.60
2011,04,07,14,36,8.60
2011,04,07,14,37,8.70
2011,04,07,14,38,8.80
2011,04,07,14,39,8.80
2011,04,07,14,40,8.80
2011,04,07,14,41,8.80
2011,04,07,14,42,8.80
2011,04,07,14,43,8.70
2011,04,07,14,44,8.60
2011,04,07,14,45,8.60
2011,04,07,14,46,8.60
2011,04,07,14,47,8.60
2011,04,07,14,48,8.60
2011,04,07,14,49,8.70
2011,04,07,14,50,8.80
2011,04,07,14,51,9.00
2011,04,07,14,52,9.10
2011,04,07,14,53,9.20
2011,04,07,14,54,9.20
2011,04,07,14,55,9.10
2011,04,07,14,56,9.10
2011,04,07,14,57,9.10
2011,04,07,14,58,9.10
2011,04,07,14,59,9.00
2011,04,07,15,00,8.90
2011,04,07,15,01,8.80
2011,04,07,15,02,8.80
2011,04,07,15,03,8.70
2011,04,07,15,04,8.80
2011,04,07,15,05,8.80
2011,04,07,15,06,8.80
2011,04,07,15,07,8.80
2011,04,07,15,08,8.70
2011,04,07,15,09,8.70
2011,04,07,15,10,8.70
2011,04,07,15,11,8.80
2011,04,07,15,12,8.80
2011,04,07,15,13,8.80
2011,04,07,15,14,8.80
2011,04,07,15,15,8.90
2011,04,07,15,16,8.90
2011,04,07,15,17,8.90
2011,04,07,15,18,8.90
2011,04,07,15,19,9.00
2011,04,07,15,20,9.00
2011,04,07,15,21,9.00
2011,04,07,15,22,9.00
2011,04,07,15,23,9.10
2011,04,07,15,24,9.20
2011,04,07,15,25,9.30
2011,04,07,15,26,9.30
2011,04,07,15,27,9.30
2011,04,07,15,28,9.20
2011,04,07,15,29,9.20
2011,04,07,15,30,9.20
2011,04,07,15,31,9.30
2011,04,07,15,32,9.30
2011,04,07,15,33,9.30
2011,04,07,15,34,9.50
2011,04,07,15,35,9.60
2011,04,07,15,36,9.60
2011,04,07,15,37,9.70
2011,04,07,15,38,9.70
2011,04,07,15,39,9.70
2011,04,07,15,40,9.70
2011,04,07,15,41,9.70
2011,04,07,15,42,9.70
2011,04,07,15,43,9.70
2011,04,07,15,44,9.80
2011,04,07,15,45,9.90
2011,04,07,15,46,9.90
2011,04,07,15,47,9.80
2011,04,07,15,48,9.80
2011,04,07,15,49,9.80
2011,04,07,15,50,9.80
2011,04,07,15,51,9.90
2011,04,07,15,52,9.90
2011,04,07,15,53,9.90
2011,04,07,15,54,9.90
2011,04,07,15,55,9.90
2011,04,07,15,56,9.90
2011,04,07,15,57,9.90
2011,04,07,15,58,9.80
2011,04,07,15,59,9.80
2011,04,07,16,00,9.70
2011,04,07,16,01,9.60
2011,04,07,16,02,9.60
2011,04,07,16,03,9.50
2011,04,07,16,04,9.60
2011,04,07,16,05,9.50
2011,04,07,16,06,9.50
2011,04,07,16,07,9.50
2011,04,07,16,08,9.50
2011,04,07,16,09,9.50
2011,04,07,16,10,9.60
2011,04,07,16,11,9.60
2011,04,07,16,12,9.60
2011,04,07,16,13,9.60
2011,04,07,16,14,9.70
2011,04,07,16,15,9.60
2011,04,07,16,16,9.60
2011,04,07,16,17,9.60
2011,04,07,16,18,9.60
2011,04,07,16,19,9.60
2011,04,07,16,20,9.60
2011,04,07,16,21,9.60
2011,04,07,16,22,9.70
2011,04,07,16,23,9.80
2011,04,07,16,24,9.80
2011,04,07,16,25,9.80
2011,04,07,16,26,9.90
2011,04,07,16,27,10.00
2011,04,07,16,28,10.10
2011,04,07,16,29,10.00
2011,04,07,16,30,10.00
2011,04,07,16,31,10.00
2011,04,07,16,32,10.00
2011,04,07,16,33,10.10
2011,04,07,16,34,10.10
2011,04,07,16,35,10.10
2011,04,07,16,36,10.10
2011,04,07,16,37,10.00
2011,04,07,16,38,10.00
2011,04,07,16,39,10.00
2011,04,07,16,40,9.90
2011,04,07,16,41,10.00
2011,04,07,16,42,10.00
2011,04,07,16,43,10.10
2011,04,07,16,44,10.10
2011,04,07,16,45,10.20
2011,04,07,16,46,10.30
2011,04,07,16,47,10.30
2011,04,07,16,48,10.40
2011,04,07,16,49,10.50
2011,04,07,16,50,10.60
2011,04,07,16,51,10.60
2011,04,07,16,52,10.50
2011,04,07,16,53,10.40
2011,04,07,16,54,10.30
2011,04,07,16,55,10.20
2011,04,07,16,56,10.20
2011,04,07,16,57,10.20
2011,04,07,16,58,10.20
2011,04,07,16,59,10.10
2011,04,07,17,00,10.10
2011,04,07,17,01,10.10
2011,04,07,17,02,10.10
2011,04,07,17,03,10.10
2011,04,07,17,04,10.10
2011,04,07,17,05,10.10
2011,04,07,17,06,10.10
2011,04,07,17,07,10.10
2011,04,07,17,08,10.10
2011,04,07,17,09,10.10
2011,04,07,17,10,10.10
2011,04,07,17,11,10.20
2011,04,07,17,12,10.20
2011,04,07,17,13,10.30
2011,04,07,17,14,10.30
2011,04,07,17,15,10.30
2011,04,07,17,16,10.40
2011,04,07,17,17,10.50
2011,04,07,17,18,10.60
2011,04,07,17,19,10.70
2011,04,07,17,20,10.70
2011,04,07,17,21,10.80
2011,04,07,17,22,10.80
2011,04,07,17,23,10.90
2011,04,07,17,24,10.90
2011,04,07,17,25,10.80
2011,04,07,17,26,10.80
2011,04,07,17,27,10.70
2011,04,07,17,28,10.70
2011,04,07,17,29,10.60
2011,04,07,17,30,10.60
2011,04,07,17,31,10.50
2011,04,07,17,32,10.50
2011,04,07,17,33,10.50
2011,04,07,17,34,10.60
2011,04,07,17,35,10.70
2011,04,07,17,36,10.70
2011,04,07,17,37,10.80
2011,04,07,17,38,10.80
2011,04,07,17,39,10.90
2011,04,07,17,40,10.90
2011,04,07,17,41,10.90
2011,04,07,17,42,10.90
2011,04,07,17,43,10.90
2011,04,07,17,44,10.80
2011,04,07,17,45,10.80
2011,04,07,17,46,10.70
2011,04,07,17,47,10.70
2011,04,07,17,48,10.70
2011,04,07,17,49,10.70
2011,04,07,17,50,10.80
2011,04,07,17,51,10.80
2011,04,07,17,52,10.80
2011,04,07,17,53,10.80
2011,04,07,17,54,10.90
2011,04,07,17,55,10.90
2011,04,07,17,56,11.00
2011,04,07,17,57,11.00
2011,04,07,17,58,11.00
2011,04,07,17,59,11.10
2011,04,07,18,00,11.10
2011,04,07,18,01,11.10
2011,04,07,18,02,11.10